C/2020 N2 ( ATLAS )

Japanese version
Home page
Updated on December 11, 2020

---------------------------------------------------------------------

* Profile

Discovery Date July 13, 2020
Magnitude 18.2 mag
Discoverer Asteroid Terrestrial-Impact Last Alert System (ATLAS) search program

* Orbital Elements

Epoch 2020 Aug. 19.0 TT = JDT 2459080.5
T 2020 Aug. 23.67962 TT                                 Rudenko
q   1.7939667            (2000.0)            P               Q
z  +0.0091719      Peri.  331.20576     +0.24789312     -0.91553977
 +/-0.0001324      Node   257.07111     -0.81489664     -0.37387700
e   0.9835459      Incl.  161.03457     -0.52392028     +0.14833383
From 86 observations 2020 July 13-Sept. 15, mean residual 0".4.

* Magnitudes Graph

        m1 = 15.3 + 5 log d + 10.0 log r

---------------------------------------------------------------------

The orbital elements are published on M.P.E.C. 2020-W26.
The magnitudes graphs are made with Comet for Windows.

---------------------------------------------------------------------

Copyright(C) Seiichi Yoshida (comet@aerith.net). All rights reserved.